| time (UTC) | temp C | wind direction | speed KPH | gust KPH | rain 1hr cm | rain 24hr cm | rain mn cm | humidity % | barometer mb |
| 20260504211618 | 21 | 165 | 9.7 | 22.5 | 0.00 | 0.00 | 0.00 | 31 | 1006.0 |
| 20260504210046 | 21 | 156 | 8.0 | 22.5 | 0.00 | 0.00 | 0.00 | 36 | 1006.2 |
| 20260504204542 | 21 | 157 | 8.0 | 27.4 | 0.00 | 0.00 | 0.00 | 32 | 1006.0 |
| 20260504203042 | 21 | 159 | 11.3 | 24.1 | 0.00 | 0.00 | 0.00 | 31 | 1006.1 |
| 20260504201539 | 21 | 146 | 9.7 | 25.7 | 0.00 | 0.00 | 0.00 | 33 | 1006.2 |
| 20260504200038 | 22 | 225 | 9.7 | 25.7 | 0.00 | 0.00 | 0.00 | 33 | 1006.2 |
| 20260504194542 | 21 | 127 | 11.3 | 25.7 | 0.00 | 0.00 | 0.00 | 35 | 1006.1 |
| 20260504193035 | 21 | 172 | 12.9 | 27.4 | 0.00 | 0.00 | 0.00 | 32 | 1006.3 |
| 20260504191536 | 21 | 180 | 11.3 | 40.2 | 0.00 | 0.00 | 0.00 | 34 | 1006.4 |
| 20260504190032 | 21 | 138 | 11.3 | 24.1 | 0.00 | 0.00 | 0.00 | 34 | 1006.4 |
| 20260504184543 | 21 | 163 | 14.5 | 29.0 | 0.00 | 0.00 | 0.00 | 33 | 1006.5 |
| 20260504183028 | 21 | 192 | 12.9 | 33.8 | 0.00 | 0.00 | 0.00 | 34 | 1006.5 |
| 20260504181531 | 20 | 140 | 11.3 | 29.0 | 0.00 | 0.00 | 0.00 | 35 | 1006.6 |
| 20260504180027 | 21 | 183 | 16.1 | 32.2 | 0.00 | 0.00 | 0.00 | 32 | 1006.7 |
| 20260504174524 | 21 | 172 | 12.9 | 24.1 | 0.00 | 0.00 | 0.00 | 35 | 1006.7 |
| 20260504173021 | 20 | 148 | 14.5 | 41.8 | 0.00 | 0.00 | 0.00 | 34 | 1006.6 |
| 20260504171523 | 20 | 134 | 17.7 | 35.4 | 0.00 | 0.00 | 0.00 | 33 | 1006.9 |
| 20260504081544 | 3 | 117 | 0.0 | 3.2 | 0.00 | 0.00 | 0.00 | 76 | 1010.0 |
| 20260504050021 | 1 | 229 | 0.0 | 0.0 | 0.00 | 0.00 | 0.00 | 82 | 1010.1 |
| 20260504044516 | 1 | 229 | 0.0 | 0.0 | 0.00 | 0.00 | 0.00 | 82 | 1010.1 |
| 20260504043015 | 1 | 229 | 0.0 | 0.0 | 0.00 | 0.00 | 0.00 | 80 | 1010.0 |
| 20260504041510 | 1 | 229 | 0.0 | 1.6 | 0.00 | 0.00 | 0.00 | 81 | 1010.1 |
| 20260504040007 | 1 | 229 | 0.0 | 0.0 | 0.00 | 0.00 | 0.00 | 81 | 1010.0 |
| 20260504034506 | 1 | 229 | 0.0 | 3.2 | 0.00 | 0.05 | 0.00 | 80 | 1009.8 |
| 20260504033004 | 1 | 229 | 0.0 | 0.0 | 0.00 | 0.05 | 0.00 | 78 | 1009.8 |
| 20260504031505 | 1 | 229 | 0.0 | 0.0 | 0.00 | 0.05 | 0.00 | 78 | 1009.7 |
| 20260504030002 | 2 | 229 | 0.0 | 0.0 | 0.00 | 0.05 | 0.00 | 76 | 1009.6 |
| 20260504024605 | 2 | 229 | 0.0 | 0.0 | 0.00 | 0.05 | 0.00 | 75 | 1009.7 |
| 20260504023058 | 2 | 229 | 0.0 | 0.0 | 0.00 | 0.05 | 0.00 | 75 | 1009.7 |
| 20260504021557 | 2 | 229 | 0.0 | 3.2 | 0.00 | 0.05 | 0.00 | 72 | 1009.8 |
| 20260504021527 | 2 | 229 | 0.0 | 3.2 | 0.00 | 0.05 | 0.00 | 72 | 1009.8 |
| 20260504020109 | 3 | 229 | 0.0 | 0.0 | 0.00 | 0.05 | 0.00 | 74 | 1009.6 |
| 20260504014553 | 4 | 229 | 0.0 | 0.0 | 0.00 | 0.05 | 0.00 | 64 | 1009.6 |
| 20260504013052 | 4 | 229 | 0.0 | 0.0 | 0.00 | 0.05 | 0.00 | 63 | 1009.5 |
| 20260504011553 | 5 | 229 | 0.0 | 1.6 | 0.00 | 0.05 | 0.00 | 61 | 1009.4 |
| 20260504010054 | 6 | 229 | 0.0 | 4.8 | 0.00 | 0.05 | 0.00 | 59 | 1009.2 |
| 20260504004552 | 6 | 229 | 0.0 | 3.2 | 0.00 | 0.05 | 0.00 | 55 | 1009.0 |
| 20260504003053 | 6 | 130 | 0.0 | 4.8 | 0.00 | 0.05 | 0.00 | 54 | 1008.8 |
| 20260504001554 | 7 | 196 | 1.6 | 11.3 | 0.00 | 0.05 | 0.00 | 52 | 1008.8 |
| 20260504000051 | 7 | 194 | 1.6 | 12.9 | 0.00 | 0.05 | 0.00 | 52 | 1008.6 |
| 20260503234612 | 8 | 212 | 0.0 | 16.1 | 0.00 | 0.15 | 0.00 | 49 | 1008.4 |
| 20260503233051 | 8 | 238 | 3.2 | 16.1 | 0.00 | 0.15 | 0.00 | 47 | 1008.4 |
| 20260503231549 | 8 | 248 | 8.0 | 19.3 | 0.00 | 0.15 | 0.00 | 47 | 1008.1 |
| 20260503230048 | 9 | 182 | 6.4 | 19.3 | 0.00 | 0.15 | 0.00 | 46 | 1008.1 |
| 20260503224548 | 9 | 194 | 3.2 | 17.7 | 0.00 | 0.25 | 0.00 | 46 | 1007.9 |
| 20260503223047 | 9 | 210 | 4.8 | 17.7 | 0.00 | 0.25 | 0.00 | 46 | 1007.7 |
| 20260503221556 | 9 | 190 | 6.4 | 24.1 | 0.00 | 0.25 | 0.00 | 43 | 1007.6 |
| 20260503220047 | 10 | 181 | 4.8 | 16.1 | 0.00 | 0.25 | 0.00 | 42 | 1007.4 |
| 20260503214545 | 10 | 188 | 4.8 | 16.1 | 0.00 | 0.36 | 0.00 | 46 | 1007.4 |
| 20260503213044 | 10 | 211 | 4.8 | 19.3 | 0.00 | 0.36 | 0.00 | 43 | 1007.3 |